Weather History for Atwater, CA

Change the Weather History Date:

Wednesday, September 26, 2012

  Actual Average (KMCE) Record (KMCE)
Temperature  
Mean Temperature 74 °F 70 °F  
Max Temperature 93 °F 86 °F 100 °F (2009)
Min Temperature 55 °F 53 °F 50 °F (2007)
Degree Days  
Heating Degree Days 0    
Month to date heating degree days  
Since 1 July heating degree days  
Cooling Degree Days 9    
Month to date cooling degree days  
Year to date cooling degree days  
Growing Degree Days 24 (Base 50)    
Moisture  
Dew Point 51 °F    
Average Humidity 61    
Maximum Humidity 82    
Minimum Humidity 19    
Precipitation  
Precipitation 0.00 in 0.01 in 0.02 in (1998)
Month to date precipitation 0.24  
Year to date precipitation 8.94  
Since 1 July precipitation 0.26  
Snow  
Snow 0.00 in - - ()
Month to date snowfall  
Since 1 July snowfall  
Since 1 September snowfall  
Snow Depth -    
Sea Level Pressure  
Sea Level Pressure 29.83 in    
Wind  
Wind Speed 3 mph (ESE)    
Max Wind Speed 9 mph    
Max Gust Speed -    
Visibility 9 miles    
Events      
T = Trace of Precipitation, MM = Missing Value Source: NWS Daily Summary

Daily Weather History Graph

Daily Weather History Graph

Search for Another Location

Airport:

Trip Planner

Search our weather history database for the weather conditions in past years. The results will help you decide how hot, cold, wet, or windy it might be!

Date:

Astronomy

Sep. 26, 2012 Rise Set
Actual Time 6:53 AM PDT 6:52 PM PDT
Civil Twilight 6:27 AM PDT 7:18 PM PDT
Nautical Twilight 5:57 AM PDT 7:48 PM PDT
Astronomical Twilight 5:26 AM PDT 8:19 PM PDT
Moon 4:51 PM PDT (9/26) 3:29 AM PDT (9/26)
Length of Visible Light 12h 50m
Length of Day
11h 58m
Waxing Gibbous, 88% of the Moon is Illuminated
Sep 26
Waxing Gibbous
Sep 29
Full
Oct 8
Last Quarter
Oct 15
New
Oct 21
First Quarter

Hourly Weather History & Observations

Time (PDT) Temp. Dew Point Humidity Pressure Visibility Wind Dir Wind Speed Gust Speed Precip Events Conditions
12:15 AM 64.4 °F 51.8 °F 64% 29.83 in 10.0 mi Calm Calm - N/A   Clear
12:35 AM 62.6 °F 51.8 °F 68% 29.83 in 10.0 mi Calm Calm - N/A   Clear
12:55 AM 62.6 °F 53.6 °F 72% 29.83 in 10.0 mi Calm Calm - N/A   Clear
1:15 AM 60.8 °F 53.6 °F 77% 29.82 in 10.0 mi East 3.5 mph - N/A   Clear
1:35 AM 60.8 °F 53.6 °F 77% 29.83 in 10.0 mi SE 4.6 mph - N/A   Clear
1:55 AM 60.8 °F 53.6 °F 77% 29.83 in 10.0 mi SE 3.5 mph - N/A   Clear
2:15 AM 57.2 °F 51.8 °F 82% 29.83 in 10.0 mi SSE 6.9 mph - N/A   Clear
2:35 AM 60.8 °F 51.8 °F 72% 29.83 in 10.0 mi SSE 4.6 mph - N/A   Clear
2:55 AM 59.0 °F 51.8 °F 77% 29.83 in 10.0 mi Calm Calm - N/A   Clear
3:15 AM 59.0 °F 51.8 °F 77% 29.83 in 10.0 mi SSE 3.5 mph - N/A   Clear
3:35 AM 57.2 °F 51.8 °F 82% 29.83 in 10.0 mi SSE 3.5 mph - N/A   Clear
3:55 AM 57.2 °F 51.8 °F 82% 29.83 in 10.0 mi SE 3.5 mph - N/A   Clear
4:15 AM 57.2 °F 51.8 °F 82% 29.82 in 10.0 mi SE 5.8 mph - N/A   Clear
4:35 AM 57.2 °F 51.8 °F 82% 29.82 in 10.0 mi SE 4.6 mph - N/A   Clear
4:55 AM 57.2 °F 51.8 °F 82% 29.83 in 10.0 mi SSE 3.5 mph - N/A   Clear
5:35 AM 57.2 °F 50.0 °F 77% 29.83 in 10.0 mi South 3.5 mph - N/A   Clear
5:55 AM 57.2 °F 50.0 °F 77% 29.83 in 10.0 mi SSE 3.5 mph - N/A   Clear
6:15 AM 55.4 °F 50.0 °F 82% 29.84 in 10.0 mi SE 3.5 mph - N/A   Clear
6:35 AM 55.4 °F 50.0 °F 82% 29.84 in 10.0 mi North - - N/A   Clear
6:45 AM 55.4 °F 50.0 °F 82% 29.84 in 10.0 mi Calm Calm - N/A   Clear
6:55 AM 55.4 °F 48.2 °F 77% 29.84 in 10.0 mi Calm Calm - N/A   Clear
7:50 AM 62.6 °F 48.2 °F 59% 29.86 in 10.0 mi Calm Calm - N/A   Clear
8:45 AM 69.8 °F 50.0 °F 49% 29.87 in 7.0 mi Calm Calm - N/A   Clear
9:45 AM 75.2 °F 48.2 °F 38% 29.87 in 7.0 mi Variable 3.5 mph - N/A   Clear
10:45 AM 80.6 °F 48.2 °F 32% 29.86 in 7.0 mi Variable 3.5 mph - N/A   Clear
11:45 AM 84.2 °F 48.2 °F 29% 29.85 in 7.0 mi Calm Calm - N/A   Clear
12:55 PM 89.6 °F 48.2 °F 24% 29.83 in 7.0 mi Variable 3.5 mph - N/A   Clear
1:55 PM 91.4 °F 48.2 °F 23% 29.81 in 7.0 mi Variable 3.5 mph - N/A   Clear
3:45 PM 93.2 °F 44.6 °F 19% 29.78 in 7.0 mi Calm Calm - N/A   Clear
4:45 PM 93.2 °F 44.6 °F 19% 29.77 in 7.0 mi NW 8.1 mph - N/A   Clear
5:45 PM 89.6 °F 46.4 °F 22% 29.77 in 7.0 mi NW 8.1 mph - N/A   Clear
6:45 PM 82.4 °F 50.0 °F 32% 29.78 in 7.0 mi NW 8.1 mph - N/A   Clear
7:45 PM 75.2 °F 51.8 °F 44% 29.79 in 7.0 mi NNW 9.2 mph - N/A   Clear
8:45 PM 73.4 °F 53.6 °F 50% 29.81 in 7.0 mi NNW 9.2 mph - N/A   Clear
9:15 PM 71.6 °F 53.6 °F 53% 29.81 in 10.0 mi North 4.6 mph - N/A   Clear
9:35 PM 71.6 °F 53.6 °F 53% 29.82 in 10.0 mi North - - N/A   Clear
9:55 PM 69.8 °F 53.6 °F 56% 29.82 in 10.0 mi North 4.6 mph - N/A   Clear
10:35 PM 71.6 °F 55.4 °F 57% 29.83 in 10.0 mi North - - N/A   Clear
10:55 PM 69.8 °F 55.4 °F 60% 29.83 in 10.0 mi North - - N/A   Clear
11:15 PM 69.8 °F 55.4 °F 60% 29.83 in 10.0 mi North - - N/A   Clear
11:35 PM 66.2 °F 55.4 °F 68% 29.83 in 10.0 mi North - - N/A   Clear
11:55 PM 66.2 °F 55.4 °F 68% 29.83 in 10.0 mi North 5.8 mph - N/A   Clear